Flag for French Polynesia Weather past 2 weeks in Papeete, Tahiti, French Polynesia

Now
84 °F

Scattered clouds.


Feels Like: 91 °F
Forecast: 75 / 87 °F
Wind: 3 mph from Northwest

Location: Tahiti-Faaa

Current Time: Jan 27, 2015 at 11:03:21 AM

Latest Report: Jan 27, 2015 at 10:30 AM


Visibility: N/A

Pressure: 29.80 "Hg

Humidity: 70%

Dew point: 73 °F

Location of PapeeteLocation

Historic Weather in Papeete — Graph

°F

Papeete temperature yesterday

Maximum temperature yesterday: 86 °F (at 2:00 PM)
Minimum temperature yesterday: 77 °F (at 11:30 PM)
Average temperature yesterday: 81 °F

Past Weeks' High & Low Weather Summary

 TemperatureHumidityPressure
High90 °F (Jan 12, 11:30 AM)94% (Jan 15, 1:00 AM)29.92 "Hg (Jan 15, 1:00 AM)
Low75 °F (Jan 19, 3:30 AM)59% (Jan 13, 2:00 PM)29.59 "Hg (Jan 21, 2:30 PM)
Average81 °F79%29.77 "Hg
* Reported Jan 12 10:00 AM — Jan 27 10:00 AM, Papeete, Weather by CustomWeather, © 2014

Note: Actual official high and low records may vary slightly from our data, if they occured in-between our weather recording intervals... More about our weather records

Advertising

Papeete weather history for previous 24 hours

 ConditionsComfort  
Time TempWeatherWind HumidityBarometerVisibility
10:00 AM
Jan 27
84 °FScattered clouds.3 mph70%29.80 "HgN/A
9:30 AM84 °FPartly sunny.5 mph70%29.80 "HgN/A
9:00 AM84 °FPartly sunny.3 mph70%29.80 "HgN/A
8:30 AM84 °FPartly sunny.5 mph70%29.80 "HgN/A
8:00 AM84 °FPartly sunny.2 mph70%29.80 "HgN/A
7:30 AM84 °FPartly sunny.No wind66%29.80 "HgN/A
7:00 AM81 °FPartly sunny.1 mph74%29.80 "HgN/A
6:30 AM77 °FPartly sunny.No wind83%29.80 "HgN/A
6:00 AM77 °FPartly sunny.No wind83%29.77 "HgN/A
5:30 AM75 °FMild.2 mph89%29.77 "HgN/A
5:00 AM75 °FMild.2 mph89%29.77 "HgN/A
4:30 AM75 °FMild.2 mph89%29.77 "HgN/A
4:00 AM75 °FMild.2 mph83%29.74 "HgN/A
3:30 AM77 °FWarm.No wind79%29.74 "HgN/A
3:00 AM75 °FPassing clouds.2 mph83%29.74 "HgN/A
2:30 AM77 °FPassing clouds.1 mph79%29.74 "HgN/A
2:00 AM77 °FPassing clouds.2 mph79%29.74 "HgN/A
1:30 AM77 °FPassing clouds.1 mph79%29.77 "HgN/A
1:00 AM77 °FPassing clouds.No wind79%29.77 "HgN/A
12:30 AM77 °FPartly cloudy.No wind79%29.80 "HgN/A
12:00 AM77 °FPartly cloudy.5 mph79%29.80 "HgN/A
11:30 PM
Jan 26
77 °FPassing clouds.2 mph79%29.80 "HgN/A
11:00 PM79 °FPassing clouds.2 mph74%29.80 "HgN/A
10:30 PM79 °FOvercast.No wind79%29.83 "HgN/A
10:00 PM79 °FOvercast.2 mph74%29.83 "HgN/A
9:30 PM79 °FPassing clouds.No wind74%29.83 "HgN/A
9:00 PM79 °FOvercast.2 mph74%29.83 "HgN/A
8:30 PM79 °FOvercast.2 mph74%29.83 "HgN/A
8:00 PM79 °FOvercast.2 mph79%29.83 "HgN/A
7:30 PM79 °FOvercast.3 mph79%29.80 "HgN/A
7:00 PM79 °FOvercast.6 mph84%29.80 "HgN/A
6:00 PM79 °FOvercast.7 mph79%29.80 "HgN/A
5:30 PM82 °FOvercast.5 mph70%29.77 "HgN/A
5:00 PM82 °FOvercast.No wind70%29.77 "HgN/A
4:30 PM82 °FOvercast.3 mph70%29.77 "HgN/A
4:00 PM82 °FScattered showers. Broken clouds.5 mph74%29.74 "HgN/A
3:30 PM82 °FScattered showers. Broken clouds.6 mph74%29.74 "HgN/A
3:00 PM84 °FScattered showers. Broken clouds.8 mph74%29.74 "HgN/A
2:30 PM84 °FScattered showers. Broken clouds.8 mph74%29.74 "HgN/A
2:00 PM86 °FScattered showers. Partly sunny.8 mph70%29.74 "HgN/A
1:30 PM84 °FScattered showers. Partly sunny.6 mph74%29.77 "HgN/A
1:00 PM82 °FScattered showers. Broken clouds.7 mph74%29.77 "HgN/A
12:30 PM82 °FScattered showers. Broken clouds.10 mph70%29.77 "HgN/A
12:00 PM82 °FScattered showers. Broken clouds.12 mph74%29.80 "HgN/A
11:30 AM82 °FScattered showers. Broken clouds.10 mph79%29.80 "HgN/A
11:00 AM82 °FScattered showers. Broken clouds.7 mph79%29.80 "HgN/A
Weather by CustomWeather, © 2014

See weather overviewHow to use our weather pages